Tillbaka till svenska Fidonet
English   Information   Debug  
FILM   0/18
FNEWS_PUBLISH   4926
FN_SYSOP   42201
FN_SYSOP_OLD1   71952
FTP_FIDO   0/2
FTSC_PUBLIC   0/13972
FUNNY   0/4886
GENEALOGY.EUR   0/71
GET_INFO   105
GOLDED   0/408
HAM   2333/16660
HOLYSMOKE   0/6791
HOT_SITES   0/1
HTMLEDIT   0/71
HUB203   466
HUB_100   264
HUB_400   39
HUMOR   0/29
IC   0/2851
INTERNET   0/424
INTERUSER   0/3
IP_CONNECT   719
JAMNNTPD   0/233
JAMTLAND   0/47
KATTY_KORNER   0/41
LAN   0/16
LINUX-USER   0/19
LINUXHELP   0/1155
LINUX   0/22300
LINUX_BBS   0/957
mail   18.68
mail_fore_ok   249
MENSA   0/341
MODERATOR   0/102
MONTE   0/992
MOSCOW_OKLAHOMA   0/1245
MUFFIN   0/783
MUSIC   0/321
N203_STAT   938
N203_SYSCHAT   313
NET203   321
NET204   69
NET_DEV   0/10
NORD.ADMIN   0/101
NORD.CHAT   0/2572
NORD.FIDONET   189
NORD.HARDWARE   0/28
NORD.KULTUR   0/114
NORD.PROG   0/32
NORD.SOFTWARE   0/88
NORD.TEKNIK   0/58
NORD   0/453
OCCULT_CHAT   0/93
OS2BBS   0/787
OS2DOSBBS   0/580
OS2HW   0/42
OS2INET   0/37
OS2LAN   0/134
OS2PROG   0/36
OS2REXX   0/113
OS2USER-L   207
OS2   0/4830
OSDEBATE   0/18996
PASCAL   0/490
PERL   0/457
PHP   0/45
POINTS   0/405
POLITICS   0/29554
POL_INC   0/14731
PSION   103
R20_ADMIN   1133
R20_AMATORRADIO   0/2
R20_BEST_OF_FIDONET   16
R20_CHAT   0/896
R20_DEPP   0/3
R20_DEV   400
R20_ECHO2   1830
R20_ECHOPRES   0/35
R20_ESTAT   0/719
R20_FIDONETPROG...
...RAM.MYPOINT
  0/2
R20_FIDONETPROGRAM   0/22
R20_FIDONET   0/248
R20_FILEFIND   0/24
R20_FILEFOUND   0/22
R20_HIFI   0/3
R20_INFO2   3723
R20_INTERNET   0/12940
R20_INTRESSE   0/60
R20_INTR_KOM   0/99
R20_KANDIDAT.CHAT   42
R20_KANDIDAT   28
R20_KOM_DEV   112
R20_KONTROLL   0/13360
R20_KORSET   0/18
R20_LOKALTRAFIK   0/24
R20_MODERATOR   0/1852
R20_NC   76
R20_NET200   245
R20_NETWORK.OTH...
...ERNETS
  0/13
R20_OPERATIVSYS...
...TEM.LINUX
  0/44
R20_PROGRAMVAROR   0/1
R20_REC2NEC   534
R20_SFOSM   0/341
R20_SF   0/108
R20_SPRAK.ENGLISH   0/1
R20_SQUISH   107
R20_TEST   2
R20_WORST_OF_FIDONET   20
RAR   0/9
RA_MULTI   106
RA_UTIL   0/162
REGCON.EUR   0/2068
REGCON   0/13
SCIENCE   0/1206
SF   0/239
SHAREWARE_SUPPORT   0/5146
SHAREWRE   0/14
SIMPSONS   0/169
STATS_OLD1   0/2539.065
STATS_OLD2   0/2530
STATS_OLD3   0/2395.095
STATS_OLD4   0/1692.25
SURVIVOR   0/495
SYSOPS_CORNER   0/3
SYSOP   0/84
TAGLINES   0/112
TEAMOS2   0/4530
TECH   0/2617
TEST.444   0/105
TRAPDOOR   0/19
TREK   0/755
TUB   0/290
UFO   0/40
UNIX   0/1316
USA_EURLINK   0/102
USR_MODEMS   0/1
VATICAN   0/2740
VIETNAM_VETS   0/14
VIRUS   0/378
VIRUS_INFO   0/201
VISUAL_BASIC   0/473
WHITEHOUSE   0/5187
WIN2000   0/101
WIN32   0/30
WIN95   0/4291
WIN95_OLD1   0/70272
WINDOWS   0/1517
WWB_SYSOP   0/419
WWB_TECH   0/810
ZCC-PUBLIC   0/1
ZEC   4

 
4DOS   0/134
ABORTION   0/7
ALASKA_CHAT   0/506
ALLFIX_FILE   0/1313
ALLFIX_FILE_OLD1   0/7997
ALT_DOS   0/152
AMATEUR_RADIO   0/1039
AMIGASALE   0/14
AMIGA   0/331
AMIGA_INT   0/1
AMIGA_PROG   0/20
AMIGA_SYSOP   0/26
ANIME   0/15
ARGUS   0/924
ASCII_ART   0/340
ASIAN_LINK   0/651
ASTRONOMY   0/417
AUDIO   0/92
AUTOMOBILE_RACING   0/105
BABYLON5   0/17862
BAG   135
BATPOWER   0/361
BBBS.ENGLISH   0/382
BBSLAW   0/109
BBS_ADS   0/5290
BBS_INTERNET   0/507
BIBLE   0/3563
BINKD   0/1119
BINKLEY   0/215
BLUEWAVE   0/2173
CABLE_MODEMS   0/25
CBM   0/46
CDRECORD   0/66
CDROM   0/20
CLASSIC_COMPUTER   0/378
COMICS   0/15
CONSPRCY   0/899
COOKING   41444
COOKING_OLD1   0/24719
COOKING_OLD2   0/40862
COOKING_OLD3   0/37489
COOKING_OLD4   0/35496
COOKING_OLD5   9370
C_ECHO   0/189
C_PLUSPLUS   0/31
DIRTY_DOZEN   0/201
DOORGAMES   0/2285
DOS_INTERNET   0/196
duplikat   6102
ECHOLIST   0/18295
EC_SUPPORT   0/318
ELECTRONICS   0/359
ELEKTRONIK.GER   1534
ENET.LINGUISTIC   0/13
ENET.POLITICS   0/4
ENET.SOFT   0/11701
ENET.SYSOP   34296
ENET.TALKS   0/32
ENGLISH_TUTOR   0/2000
EVOLUTION   0/1335
FDECHO   0/217
FDN_ANNOUNCE   0/7068
FIDONEWS   25062
FIDONEWS_OLD1   0/49742
FIDONEWS_OLD2   0/35949
FIDONEWS_OLD3   0/30874
FIDONEWS_OLD4   0/37224
FIDO_SYSOP   12922
FIDO_UTIL   0/180
FILEFIND   0/209
FILEGATE   0/212
Möte HAM, 16660 texter
 lista första sista föregående nästa
Text 4670, 909 rader
Skriven 2011-08-18 23:02:00 av Amsat List (1:323/120.0)
Ärende: [keps] 0rb11230.amsa
============================
[keps] 0rb11230.amsa

Sender: keps-bounces@amsat.org
Return-Path: <keps-bounces@amsat.org>
X-Rcpt: craig.healy@chowda.com
X-UIDL: 1313722719.975

SB KEPS @ AMSAT  $ORB11230.O
Orbital Elements  11230.OSCAR

HR AMSAT ORBITAL ELEMENTS FOR OSCAR SATELLITES
FROM WA5QGD FORT WORTH,TX August 18, 2011
Send Subscribe/unsubscribe to KEPS at http://www.amsat.org/mailman/listinfo/kep
BID: ORB11230.O
TO ALL RADIO AMATEURS BT

Satellite: AO-07
Catalog number: 07530
Epoch time:      11229.60671153
Element set:    0158
Inclination:      101.3948 deg
RA of node:       233.7282 deg
Eccentricity:    0.0011984
Arg of perigee:   157.8563 deg
Mean anomaly:     202.3028 deg
Mean motion:   12.53583558 rev/day
Decay rate:       -2.7e-07 rev/day^2
Epoch rev:           68188
Checksum:              305

Satellite: FO-29
Catalog number: 24278
Epoch time:      11230.76704023
Element set:     641
Inclination:      098.5565 deg
RA of node:       006.4829 deg
Eccentricity:    0.0351360
Arg of perigee:   095.0638 deg
Mean anomaly:     269.0703 deg
Mean motion:   13.52964253 rev/day
Decay rate:       -3.0e-07 rev/day^2
Epoch rev:           74092
Checksum:              301

Satellite: SO-33
Catalog number: 25509
Epoch time:      11229.45695043
Element set:    0035
Inclination:      031.4316 deg
RA of node:       257.7645 deg
Eccentricity:    0.0353174
Arg of perigee:   057.4326 deg
Mean anomaly:     305.9904 deg
Mean motion:   14.28437902 rev/day
Decay rate:       1.17e-06 rev/day^2
Epoch rev:           66904
Checksum:              304

Satellite: RS-22
Catalog number: 27939
Epoch time:      11230.77713354
Element set:     549
Inclination:      097.8398 deg
RA of node:       081.7634 deg
Eccentricity:    0.0014085
Arg of perigee:   142.1518 deg
Mean anomaly:     218.0681 deg
Mean motion:   14.63625585 rev/day
Decay rate:       2.01e-06 rev/day^2
Epoch rev:           42149
Checksum:              313

Satellite: VO-52
Catalog number: 28650
Epoch time:      11230.54412709
Element set:     875
Inclination:      097.6364 deg
RA of node:       270.8718 deg
Eccentricity:    0.0026101
Arg of perigee:   319.6668 deg
Mean anomaly:     040.2642 deg
Mean motion:   14.82143091 rev/day
Decay rate:       4.75e-06 rev/day^2
Epoch rev:           33998
Checksum:              313

Satellite: SO-67
Catalog number: 35870
Epoch time:      11230.19425918
Element set:     134
Inclination:      097.2757 deg
RA of node:       271.4789 deg
Eccentricity:    0.0002981
Arg of perigee:   132.9870 deg
Mean anomaly:     313.2917 deg
Mean motion:   15.20969297 rev/day
Decay rate:      1.275e-05 rev/day^2
Epoch rev:           10636
Checksum:              331

Satellite: HO-68
Catalog number: 36122
Epoch time:      11230.71714450
Element set:     660
Inclination:      100.4103 deg
RA of node:       290.5674 deg
Eccentricity:    0.0007796
Arg of perigee:   083.1764 deg
Mean anomaly:     277.0234 deg
Mean motion:   13.16287679 rev/day
Decay rate:       -4.4e-07 rev/day^2
Epoch rev:            8046
Checksum:              289

/EX
SB KEPS @ AMSAT  $ORB11230.D
Orbital Elements  11230.MICROS

HR AMSAT ORBITAL ELEMENTS FOR THE MICROSATS
FROM WA5QGD FORT WORTH,TX August 18, 2011
Send Subscribe/unsubscribe to KEPS at http://www.amsat.org/mailman/listinfo/kep
BID: ORB11230.D
TO ALL RADIO AMATEURS BT

Satellite: UO-11
Catalog number: 14781
Epoch time:      11229.93324011
Element set:    0631
Inclination:      098.0010 deg
RA of node:       286.4334 deg
Eccentricity:    0.0008057
Arg of perigee:   304.4546 deg
Mean anomaly:     055.5903 deg
Mean motion:   14.80014272 rev/day
Decay rate:       2.36e-06 rev/day^2
Epoch rev:           47492
Checksum:              268

Satellite: AO-16
Catalog number: 20439
Epoch time:      11229.86231710
Element set:    0270
Inclination:      098.3889 deg
RA of node:       177.4324 deg
Eccentricity:    0.0011033
Arg of perigee:   346.2730 deg
Mean anomaly:     013.8150 deg
Mean motion:   14.31933485 rev/day
Decay rate:        2.0e-07 rev/day^2
Epoch rev:           12644
Checksum:              272

Satellite: LO-19
Catalog number: 20442
Epoch time:      11230.84039069
Element set:     176
Inclination:      098.3521 deg
RA of node:       182.4901 deg
Eccentricity:    0.0011584
Arg of perigee:   335.6949 deg
Mean anomaly:     024.3690 deg
Mean motion:   14.32157652 rev/day
Decay rate:       -7.1e-07 rev/day^2
Epoch rev:           12676
Checksum:              295

Satellite: AO-27
Catalog number: 22825
Epoch time:      11230.73182255
Element set:     891
Inclination:      098.5351 deg
RA of node:       173.9078 deg
Eccentricity:    0.0009331
Arg of perigee:   090.2312 deg
Mean anomaly:     269.9933 deg
Mean motion:   14.29358205 rev/day
Decay rate:       -3.2e-07 rev/day^2
Epoch rev:           93312
Checksum:              300

Satellite: IO-26
Catalog number: 22826
Epoch time:      11229.87992337
Element set:    0663
Inclination:      098.5278 deg
RA of node:       173.5265 deg
Eccentricity:    0.0010128
Arg of perigee:   087.0525 deg
Mean anomaly:     273.1816 deg
Mean motion:   14.29621789 rev/day
Decay rate:        4.1e-07 rev/day^2
Epoch rev:           93312
Checksum:              324

Satellite: GO-32
Catalog number: 25397
Epoch time:      11229.70908106
Element set:    0558
Inclination:      098.3287 deg
RA of node:       218.9943 deg
Eccentricity:    0.0002324
Arg of perigee:   093.5499 deg
Mean anomaly:     266.5937 deg
Mean motion:   14.23216168 rev/day
Decay rate:        8.9e-07 rev/day^2
Epoch rev:           68071
Checksum:              340

